0 HST 1 20580U 90037B 25291.32326111 .00010985 00000-0 39466-3 0 9996 2 20580 28.4688 289.3843 0001918 345.3636 14.6903 15.26980955751511 0 ISS (ZARYA) 1 25544U 98067A 25291.07325464 .00013628 00000-0 25328-3 0 9993 2 25544 51.6337 58.0643 0004254 304.7888 55.2700 15.49199814534222 0 CXO 1 25867U 99040B 25293.72802329 .00000720 00000-0 00000+0 0 9992 2 25867 52.0284 124.4771 8226367 310.6443 0.1841 0.37811257 16412